Weather in Lavrovka

Russia / Tambov Oblast     52°14′25″N   40°46′10″E
temp.,
°C
wind,
m/s
gust,
m/s
humid.,
%
clouds,
%
prec.,
mm/h
press.,
hPa
HPBL,
m
7 march, sun
sun700:00−12wnw47930 0.0 1018113
03:00−13w47920 0.0 1018121
06:00−13wsw479521 0.0 1017116
09:00−9sw6139128 0.0 1015374
12:00−4sw91481100 0.0 1012993
15:00−3sw101775100 0.0 10081106
18:00−3sw91874100 0.0 10041138
21:00−2wsw111893100 0.8 10011130
8 march, mon
mon800:00−2w111695100 0.5 10011106
03:00−6wsw51283100 0.6 1003314
06:00−7sw51186100 0.0 1003229
09:00−4wsw61287100 0.0 1003586
12:00−2w61086100 0.3 10031117
15:00−2w6108098 0.4 10041162
18:00−6w498539 0.0 1005195
21:00−9wnw349230 0.0 100859
9 march, tue
tue900:00−11nw239452 0.1 100921
03:00−13nw239231 0.1 101021
06:00−15nnw339515 0.0 101226
09:00−13nw239524 0.0 1013130
12:00−10nw349279 0.0 1014342
15:00−8nw358890 0.0 1015553
18:00−10nw489197 0.1 1016208
21:00−15nnw459367 0.1 101986
10 march, wed
wed1000:00−17nw34960 0.0 102043
03:00−19nw34974 0.0 102242
06:00−20nw349960 0.0 102348
09:00−19nnw489552 0.0 1025274
12:00−17nnw459050 0.0 1026411
15:00−15nnw358658 0.0 1026479
18:00−19nnw229345 0.0 102720
21:00−21nne239323 0.0 102920
11 march, thu
thu1100:00−23n22920 0.0 103020
03:00−24nne11910 0.0 103120
06:00−24sse00890 0.0 103120
09:00−20s11833 0.0 103248
12:00−15s23789 0.0 1032234
15:00−13s35845 0.0 1031267
18:00−16s34880 0.0 103048
21:00−16s45840 0.0 103078